Location: East Irvine
(33.6759°N, 117.7598°W)
Time: 23:01:52
(UTC+00:00)

BlueWalker 3 - Pass Details

Date: 15 November 2025
Orbit: 455 x 462 km, 53.2° (Epoch: 13 December)

Event Time Altitude Azimuth Distance (km) Brightness Sun altitude
Rises 02:37:25 0° 203° (SSW) 2,469 5.9 -22.7°
Reaches altitude 10° 02:39:40 10° 194° (SSW) 1,600 4.7 -23.2°
Enters shadow 02:40:46 17° 184° (S) 1,219 4.0 -23.4°
